[[{"header":{"parameterUnit":"m.s-1","parameterCategory":1,"la1":30.2992,"la2":30.254,"lo1":-89.0895,"lo2":-89.0443,"dy":0.0025,"dx":0.0025,"nx":19,"ny":19,"refTime":"2026-04-24T09:00:00:Z","depth":0,"parameterNumber":2,"parameterNumberName":"U-component_of_WINDS"},"data":[0,0,0,1.2548,1.2549,1.2568,1.2568,1.2599,1.2599,0,0,0,0,0,0,0,0,0,0,0,1.2547,1.2548,1.2548,1.2549,1.2568,1.2568,1.2599,1.2599,0,0,0,0,0,0,0,0,0,0,0,1.2547,1.2548,1.2548,1.2549,1.2568,1.2568,1.2599,1.2582,0,0,0,0,0,0,0,0,0,0,1.2562,1.2566,1.2548,1.2548,1.2549,1.2568,1.2568,1.2581,1.2583,1.2594,0,1.2605,0,1.2603,1.2602,1.2602,0,0,0,1.2545,1.2565,1.2566,1.2548,1.2549,1.2568,1.2558,1.2582,1.2584,1.2596,1.2605,1.2606,1.2603,1.2602,1.2602,1.2675,1.2676,0,0,1.2544,1.2553,1.2564,1.2567,1.2565,1.2558,1.2559,1.2583,1.2593,1.2605,1.2607,1.2604,1.2603,1.2603,1.2675,1.2675,0,0,0,1.2544,1.2553,1.2553,1.2566,1.2569,1.2558,1.256,1.2592,1.2591,1.2607,1.2604,1.2603,1.2603,1.2674,1.2675,1.2708,0,0,0,1.2543,1.2553,1.2553,1.2558,1.2569,1.2581,1.2568,1.259,1.2592,1.2604,1.2603,1.2604,1.2673,1.2674,1.2706,1.2722,0,0,0,1.2545,1.2553,1.2557,1.2559,1.2567,1.258,1.2581,1.259,1.2591,1.2602,1.2604,1.2673,1.2674,1.2704,1.2719,1.2743,0,0,0,1.2549,1.2587,1.2558,1.2599,1.2567,1.2601,1.2581,1.2606,1.2619,1.2603,1.2674,1.2675,1.2703,1.2717,1.2741,1.2764,1.2775,0,0,1.2602,1.2594,1.2617,1.2591,1.2633,1.2597,1.2643,1.2648,1.2641,1.2664,1.2666,1.2707,1.2719,1.2742,1.2834,1.2842,0,0,0,1.2637,1.2654,1.2663,1.2676,1.268,1.2684,1.268,1.2682,1.2701,1.2655,1.2722,1.2729,1.2742,1.2753,1.276,1.2771,1.268,1.268,1.268,1.2725,1.2713,1.2751,1.2741,1.2754,1.2749,1.2758,1.2759,1.2744,1.276,1.2767,1.2824,1.2837,1.2842,1.2853,1.2779,1.2779,1.2779,1.2779,1.2801,1.2822,1.28,1.2829,1.2816,1.2839,1.2836,1.2824,1.2844,1.2818,1.2829,1.2802,1.2852,1.2861,1.2782,1.2781,1.2781,1.2781,1.2781,1.2857,1.2865,1.2865,1.2882,1.2897,1.2885,1.2905,1.2893,1.2882,1.2893,1.2898,1.2897,1.2894,1.2896,1.2897,1.2897,1.2897,1.2897,1.2897,1.2914,1.2913,1.2931,1.2937,1.2944,1.295,1.2945,1.2951,1.2954,1.2943,1.2943,1.2926,1.2859,1.2842,1.29,1.29,1.2899,1.2899,1.2899,1.2993,1.2973,1.3001,1.3007,1.3012,1.3027,1.3011,1.3023,1.3026,1.3036,1.3016,1.2969,1.296,1.2954,1.294,1.3019,1.3019,1.3019,1.3019,1.304,1.3034,1.3058,1.3068,1.3077,1.3065,1.3096,1.3092,1.3084,1.3085,1.3072,1.3052,1.3047,1.3041,1.3033,1.3019,1.3117,1.3118,1.3118,1.3087,1.3081,1.311,1.3102,1.3105,1.3108,1.3136,1.3148,1.3136,1.3121,1.3085,1.3081,1.3049,1.304,1.3024,1.3012,1.2987,0,0]},{"header":{"parameterUnit":"m.s-1","parameterCategory":1,"la1":30.2992,"la2":30.254,"lo1":-89.0895,"lo2":-89.0443,"dy":0.0025,"dx":0.0025,"nx":19,"ny":19,"refTime":"2026-04-24T09:00:00:Z","depth":0,"parameterNumber":3,"parameterNumberName":"V-component_of_WINDS"},"data":[0,0,0,2.3746,2.3749,2.389,2.3891,2.4062,2.4063,0,0,0,0,0,0,0,0,0,0,0,2.37,2.3701,2.3746,2.3749,2.389,2.3891,2.4061,2.4063,0,0,0,0,0,0,0,0,0,0,0,2.3699,2.37,2.3702,2.375,2.389,2.3891,2.4061,2.3957,0,0,0,0,0,0,0,0,0,0,2.3822,2.3775,2.37,2.3702,2.375,2.389,2.3891,2.3953,2.3964,2.3994,0,2.4021,0,2.4045,2.4074,2.4075,0,0,0,2.3752,2.3766,2.3808,2.3702,2.3752,2.389,2.3827,2.3959,2.3972,2.4009,2.4024,2.403,2.4048,2.4075,2.4076,2.4245,2.4245,0,0,2.3744,2.3722,2.3799,2.3816,2.3796,2.3823,2.3832,2.3967,2.3981,2.4024,2.4034,2.4051,2.4076,2.4077,2.4244,2.4245,0,0,0,2.372,2.3717,2.3756,2.3809,2.3835,2.3827,2.3837,2.3975,2.3989,2.4036,2.4053,2.4077,2.4079,2.4243,2.4244,2.4258,0,0,0,2.3715,2.3703,2.3752,2.3741,2.3833,2.3907,2.3842,2.398,2.3996,2.4052,2.4077,2.4081,2.4243,2.4244,2.4256,2.4267,0,0,0,2.3692,2.37,2.3719,2.3739,2.38,2.3906,2.3928,2.3984,2.4006,2.4075,2.4081,2.4242,2.4244,2.4254,2.4265,2.4306,0,0,0,2.366,2.3728,2.3719,2.3801,2.3798,2.3913,2.3928,2.4014,2.4074,2.4078,2.4243,2.4244,2.4254,2.4263,2.4304,2.4338,2.435,0,0,2.3733,2.3736,2.3786,2.3782,2.3894,2.3893,2.4007,2.4081,2.4106,2.4196,2.4201,2.4257,2.4265,2.4306,2.4423,2.4433,0,0,0,2.3801,2.3837,2.3871,2.3929,2.3989,2.4041,2.4101,2.4129,2.4207,2.4149,2.4283,2.4289,2.4314,2.4331,2.4339,2.4362,2.4251,2.4251,2.4251,2.3874,2.3904,2.3988,2.4036,2.4091,2.4153,2.42,2.4248,2.426,2.4291,2.4319,2.4386,2.4406,2.4412,2.4435,2.4338,2.4338,2.4338,2.4338,2.3984,2.4039,2.4056,2.4144,2.4175,2.4248,2.4309,2.4316,2.4388,2.4368,2.4392,2.4368,2.4421,2.4443,2.434,2.434,2.4339,2.4339,2.4339,2.4035,2.4067,2.4101,2.4188,2.4251,2.4296,2.4365,2.439,2.4413,2.4437,2.4468,2.4468,2.4471,2.445,2.445,2.445,2.4451,2.4451,2.4451,2.4075,2.4113,2.4169,2.4239,2.428,2.4336,2.4399,2.4439,2.4489,2.4502,2.4502,2.4512,2.4421,2.4398,2.4455,2.4454,2.4454,2.4453,2.4453,2.4176,2.4158,2.4245,2.4286,2.437,2.4431,2.4462,2.4542,2.4578,2.4611,2.4616,2.4545,2.4548,2.4542,2.4523,2.4609,2.4609,2.4609,2.4609,2.422,2.4225,2.432,2.4384,2.4449,2.4486,2.4582,2.4631,2.4678,2.4702,2.4693,2.467,2.4663,2.4671,2.4662,2.4645,2.476,2.476,2.476,2.4284,2.4297,2.4374,2.4423,2.449,2.4547,2.4638,2.471,2.4759,2.4767,2.4722,2.4716,2.4679,2.4665,2.4671,2.4657,2.4626,0,0]}]]